C/2017 M5 ( TOTAS )

Japanese version
Home page
Updated on May 20, 2019

---------------------------------------------------------------------

* Profile

Discovery Date June 23, 2017
Magnitude 18.6 mag
Discoverer Teide Observatory Tenerife Asteroid Survey (TOTAS)

* Pictures

* Orbital Elements

Epoch 2018 June 11.0 TT = JDT 2458280.5
T 2018 June 2.97520 TT                                  MPCW
q   5.9895530            (2000.0)            P               Q
z  -0.0006399      Peri.   92.66106     +0.60572257     +0.77903197
 +/-0.0000015      Node   216.26264     -0.79432296     +0.58018334
e   1.0038324      Incl.   15.88485     -0.04638100     +0.23768989
From 261 observations 2016 May 30-2019 Jan. 2, mean residual 0".6.

* Magnitudes Graph

        m1 = -4.5 + 5 log d + 24 log r

---------------------------------------------------------------------

The orbital elements are published on M.P.E.C. 2019-J142.
The magnitudes graphs are made with Comet for Windows.

---------------------------------------------------------------------

Copyright(C) Seiichi Yoshida (comet@aerith.net). All rights reserved.